Location: Boiro
(42.6475°N, 8.8834°W)
Time: 21:24:19
(UTC+01:00)

Vanguard 1 - Pass Details

Date: 03 December 2021
Orbit: 652 x 3830 km, 34.2° (Epoch: 19 January)

Event Time Altitude Azimuth Distance (km) Brightness Sun altitude
Rises 05:51:45 0° 274° (W) 7,974 - -31.7°
Reaches altitude 10° 05:57:30 10° 272° (W) 6,868 - -30.7°
Exits shadow 06:09:16 36° 257° (WSW) 4,573 12.9 -28.5°
Maximum altitude 06:18:28 56° 202° (SSW) 3,283 12.5 -26.8°
Drops below altitude 10° 06:31:18 10° 128° (SE) 4,412 14.2 -24.5°
Sets 06:34:07 0° 124° (SE) 5,071 14.8 -24.0°
